Погода в Чимишлии

Молдова     46°31′23″N   28°47′04″E
темп.,
°C
ветер,
м/с
пор.,
м/с
влажн.,
%
обл.,
%
осадки,
мм/ч
давл.,
гПа
погр.,
м
12 мая, ср
ср1200:00+14ссв22789 0.0 101516
03:00+13св22885 0.1 101313
06:00+11всв2495100 0.0 101381
09:00+12в6788100 0.1 1013543
12:00+11в6777100 0.1 1014427
15:00+12вюв4675100 0.1 1013504
18:00+11юв3583100 0.1 1012295
21:00+10вюв3683100 0.3 1012242
13 мая, чт
чт1300:00+10в3780100 0.0 1012326
03:00+10вюв3879100 0.2 1011341
06:00+9вюв4981100 0.1 1010340
09:00+13ююв6971100 0.1 1010676
12:00+13юв6887100 1.5 1010534
15:00+16юв61072100 2.5 10081253
18:00+16юв61061100 0.3 1007483
21:00+13юв61272100 0.3 1007413
14 мая, пт
пт1400:00+10ююв310875 0.0 1008228
03:00+9ююв3793100 0.0 1007141
06:00+11ююв369580 0.3 1007158
09:00+16ю567828 0.3 1007677
12:00+20ююз795662 0.1 10071676
15:00+20зюз8851100 0.1 10071401
18:00+20з795442 0.0 10081640
21:00+15зсз11740 0.0 100911
15 мая, сб
сб1500:00+14ю117938 0.3 101011
03:00+13юв128395 0.3 101010
06:00+12ююв118274 0.0 101110
09:00+17ю22640 0.0 1011439
12:00+22юз334518 0.0 10111499
15:00+23ююз5640100 0.0 10102276
18:00+23юз573912 0.0 10102348
21:00+18юв3455100 0.0 101041
16 мая, вс
вс1600:00+17ююв2467100 0.0 101090
03:00+14ююв227285 0.0 101016
06:00+13в2275100 0.0 101012
09:00+18в4563100 0.0 1010401
12:00+21в4549100 0.0 10101099
15:00+24в443985 0.0 10091713
18:00+24вюв4440100 0.0 10081726
21:00+19ююв3463100 0.0 100858